Theta_e
348 353 357 359 371 350 348 351 349 351 351 350 349 351 353 355 359 362 350 352 350 351 348 346 346 350 350 354 354 353 348 349 345 346 350 349 349 349 346 350 350 351 348 351 351 351 351 350 349
356 356 356 361 357 343 345 344 349 351 350 349 348 350 352 359 351 351 352 351 350 352 349 346 344 349 350 347 352 353 353 353 353 353 353 353 347 352 350 350 351 351 351 350 350 351 350 348 348
358 355 364 363 342 344 346 346 348 349 349 348 347 349 351 353 348 349 352 350 350 351 350 349 339 348 349 345 347 347 348 351 351 351 350 350 348 350 351 353 352 353 349 352 349 352 349 348 349
356 359 363 346 344 343 346 347 347 346 345 345 346 352 350 347 348 349 351 350 349 350 352 351 338 347 349 348 349 354 353 349 353 352 353 351 349 349 349 349 349 349 353 351 352 350 349 349 350
356 359 349 344 344 344 345 347 343 343 346 346 345 351 354 351 350 350 350 349 348 355 356 353 343 345 351 348 348 350 352 352 350 351 349 349 350 349 348 350 351 348 352 350 351 351 352 350 351
359 354 343 344 345 343 345 344 342 344 345 346 347 351 355 350 349 349 349 349 347 353 352 354 352 348 347 348 346 349 350 353 351 352 352 351 347 348 347 345 346 347 350 351 351 352 350 351 351
359 348 344 343 343 345 346 342 341 342 342 345 346 351 351 349 349 348 349 348 347 347 353 355 354 355 352 352 351 351 349 350 350 352 352 347 351 349 352 349 346 349 348 351 351 351 351 350 348
354 350 345 344 345 346 346 345 343 341 344 345 347 350 351 349 348 349 350 350 348 347 355 353 355 354 355 353 352 351 346 346 346 348 347 348 349 345 343 346 345 350 349 349 351 351 351 350 348
351 354 345 343 344 345 345 347 346 346 344 345 346 348 348 348 351 352 353 352 351 349 348 354 354 355 356 355 354 350 349 347 348 347 346 349 349 350 348 349 349 344 349 351 351 352 350 349 348
348 347 340 340 342 344 344 346 347 350 348 347 348 348 348 348 351 352 352 351 351 350 349 348 350 354 353 350 356 352 352 350 350 351 353 351 349 350 351 350 348 344 352 352 352 351 351 349 345
343 343 337 339 340 340 343 346 347 348 350 348 348 350 349 349 350 351 351 348 351 350 350 350 350 350 349 347 350 352 354 350 351 351 349 351 350 352 349 349 351 347 346 348 347 348 348 348 346
338 339 336 336 337 339 341 342 346 348 347 344 345 348 349 349 351 351 351 349 349 350 351 352 352 352 350 349 349 350 351 353 352 345 347 349 351 350 348 348 348 348 347 348 348 348 348 347 348
336 337 337 336 336 340 339 341 343 346 347 346 345 347 350 349 349 349 350 350 349 351 351 352 354 354 354 354 352 351 350 350 349 338 342 346 345 347 349 348 346 349 350 351 350 348 348 350 349
336 335 336 337 337 340 342 340 342 344 346 348 347 348 350 349 349 348 350 351 350 351 352 353 356 357 357 355 356 355 353 350 350 344 341 342 344 346 349 348 349 351 352 352 350 350 347 348 348
334 336 336 337 339 341 341 340 341 343 345 350 349 348 349 349 348 349 349 351 352 351 353 354 356 358 358 358 357 355 352 352 351 351 350 345 341 348 347 347 349 349 350 352 351 348 346 350 349
333 334 336 336 341 342 341 343 342 341 344 350 351 350 349 349 348 348 349 351 352 352 353 355 356 357 359 358 356 357 356 355 353 354 354 349 345 344 348 347 347 349 350 349 352 351 350 350 348
333 334 335 337 341 340 343 342 341 340 341 348 351 352 351 351 349 348 349 349 351 353 355 357 358 358 359 358 356 357 356 355 353 352 351 350 347 346 346 346 347 349 347 348 351 352 348 350 348
333 334 334 335 338 340 341 342 339 340 342 343 346 352 353 353 352 349 349 349 350 353 358 361 361 359 359 358 356 353 354 353 355 350 348 354 347 345 344 342 349 348 343 345 348 348 348 348 347
330 331 332 334 334 335 335 337 336 336 336 340 343 348 353 353 352 350 349 349 350 353 359 362 363 364 363 361 355 349 349 352 353 350 350 351 352 346 345 345 346 343 342 344 343 346 349 348 347
330 330 331 331 331 332 334 334 337 336 335 336 339 344 350 352 353 353 351 350 351 353 359 363 364 365 362 358 345 334 336 350 353 350 350 350 350 350 350 345 343 342 341 341 342 347 348 348 349
328 328 329 330 330 331 334 336 337 337 336 336 336 337 344 350 352 353 355 353 353 356 360 364 362 358 347 358 346 339 349 355 354 351 350 350 350 352 350 348 346 342 342 342 343 341 343 348 349
327 327 327 327 327 328 331 335 339 336 335 335 337 338 339 345 350 352 355 355 354 358 364 359 342 340 356 356 351 353 354 354 353 350 347 349 350 349 350 349 349 349 345 345 347 348 350 349 351
326 327 327 327 328 329 329 334 337 336 336 335 338 338 341 341 347 349 354 356 356 362 357 345 342 344 344 356 355 354 355 351 354 352 349 351 351 349 349 348 350 350 350 349 349 345 345 345 348
326 326 327 328 328 329 330 331 335 337 335 336 335 339 342 342 344 349 350 357 358 362 350 345 347 347 348 348 354 352 350 352 352 353 350 350 350 351 350 350 351 350 350 350 349 348 348 347 349
325 326 328 329 330 329 330 332 335 335 334 334 334 338 342 345 345 350 352 361 363 358 350 347 344 346 349 349 348 350 353 354 355 355 351 352 349 346 347 348 351 350 349 347 346 347 348 349 349
326 327 328 331 331 332 332 333 336 334 333 331 333 341 342 348 348 350 355 364 362 357 352 349 346 349 353 352 353 354 356 353 353 352 352 351 346 344 341 341 347 347 346 345 345 346 348 348 348
326 328 327 328 330 330 332 334 334 332 331 330 332 347 347 353 351 352 362 361 360 357 354 347 347 350 354 352 354 353 351 355 353 353 350 348 347 344 339 339 344 344 343 343 345 346 347 346 348
326 328 328 328 331 333 331 330 331 332 331 341 348 353 354 356 357 356 359 360 357 356 355 353 351 351 355 353 357 356 356 354 352 351 349 348 346 345 339 340 343 342 341 342 343 345 346 346 346
326 326 328 330 330 331 331 331 335 333 342 346 353 356 355 356 359 359 358 359 356 355 355 353 353 351 355 357 358 354 353 352 350 349 348 348 347 346 345 345 343 341 341 341 341 343 343 342 346
328 328 328 329 331 331 333 331 335 338 341 344 354 356 355 355 358 356 356 356 355 356 356 356 353 348 355 356 354 353 350 349 349 348 346 347 347 347 344 342 341 340 340 338 339 340 342 343 345
Wind_Speed
11 10 10 16 6 1 13 8 10 11 14 12 8 14 12 13 13 5 17 17 17 19 16 14 14 12 11 11 12 13 11 10 10 10 8 7 4 4 5 4 5 4 4 6 7 9 9 8 8
12 9 13 7 3 11 12 14 15 14 12 5 6 7 7 15 12 16 13 16 17 19 16 15 15 13 12 11 12 12 12 11 10 9 7 6 5 5 5 5 5 5 6 8 7 9 8 7 9
11 9 9 6 12 13 13 14 12 8 2 5 6 14 12 10 13 13 17 17 17 15 16 16 16 15 13 12 12 12 11 11 10 9 7 5 5 5 5 5 5 6 7 7 7 7 7 8 10
7 8 7 7 17 16 15 10 6 11 8 10 7 13 14 13 5 14 18 16 14 20 16 15 16 15 14 13 11 11 10 9 8 7 6 4 5 4 4 5 5 6 6 7 7 7 8 9 9
14 9 4 13 16 14 13 10 7 11 7 10 8 11 11 8 12 18 17 15 12 25 17 16 15 13 12 12 11 10 9 8 8 6 6 5 5 4 4 4 5 6 6 6 7 7 8 9 8
9 6 7 12 12 15 10 11 10 10 10 6 11 11 12 12 15 17 16 14 14 19 16 15 14 12 12 11 11 10 8 7 7 6 6 5 6 4 3 4 4 5 7 6 7 8 8 9 8
15 6 8 9 14 12 12 4 13 9 8 9 2 12 10 13 15 17 15 12 12 11 17 14 12 12 11 11 11 10 8 7 7 7 7 6 6 6 5 6 5 5 6 7 7 7 8 8 9
8 10 6 11 10 11 6 13 7 9 11 7 4 7 12 17 18 17 15 12 11 11 17 12 13 13 12 11 11 11 10 8 9 8 7 7 7 8 6 6 6 7 6 6 7 7 8 8 8
14 10 4 6 9 5 8 7 4 3 10 3 3 7 19 22 20 18 15 14 12 12 11 16 14 12 12 11 12 11 11 11 11 9 9 9 8 9 9 7 7 6 7 7 7 8 8 8 9
12 9 6 5 6 6 8 5 5 7 10 6 9 8 19 22 20 18 16 15 16 14 13 12 14 14 12 12 13 12 12 11 11 10 8 9 9 6 8 5 9 7 7 8 9 8 9 10 11
10 11 7 5 7 3 2 8 3 5 10 10 12 13 17 20 19 17 16 16 16 15 14 12 13 13 13 12 11 13 11 10 9 7 8 10 9 7 8 11 8 8 10 10 10 10 10 13 13
9 12 6 4 3 5 5 4 7 7 7 3 9 16 18 18 16 17 16 17 17 17 16 16 15 14 13 10 11 12 11 12 9 9 5 10 8 9 11 14 12 10 9 11 15 12 11 14 13
13 10 10 12 5 6 12 9 5 7 7 5 12 16 18 17 17 17 17 15 18 18 17 16 16 15 14 12 10 9 10 11 12 15 8 8 12 12 11 12 11 2 8 9 10 14 13 9 12
18 13 15 16 9 5 9 10 10 6 7 8 13 16 17 17 18 18 17 17 17 18 17 16 16 16 16 15 11 11 11 12 14 18 19 14 12 13 13 12 12 13 8 9 11 10 11 10 12
14 17 17 17 2 5 6 13 11 7 11 10 14 15 16 16 19 19 19 17 18 18 17 16 14 14 14 15 15 14 11 12 13 17 19 20 20 14 15 13 9 11 12 11 13 11 12 9 12
18 17 15 12 4 8 7 7 12 7 13 12 14 15 15 17 17 20 20 20 19 17 16 15 14 14 14 13 12 12 12 12 13 14 15 16 18 18 14 16 15 9 7 10 11 12 12 13 14
18 16 17 17 6 4 7 15 8 4 6 11 14 14 15 16 17 20 22 22 20 17 16 14 12 13 14 14 10 10 10 9 11 12 10 12 13 19 20 17 17 10 9 8 11 12 13 15 14
18 17 15 14 7 6 14 16 13 8 6 11 12 16 16 16 20 23 23 23 20 18 14 12 12 10 12 12 10 8 8 9 9 6 7 6 9 14 19 22 15 13 11 11 10 13 15 13 12
18 20 17 16 11 11 14 18 17 13 12 10 11 14 15 17 18 26 24 23 21 20 18 14 12 12 12 11 14 9 7 8 7 5 5 5 8 12 15 20 18 14 14 12 14 14 11 13 14
15 15 18 17 18 18 13 19 14 12 13 11 11 15 15 16 17 20 25 24 23 23 20 16 13 13 15 19 16 11 12 6 10 6 6 6 6 10 11 12 15 16 17 14 15 14 14 12 11
18 18 17 17 17 19 12 18 17 19 14 6 7 7 14 16 18 19 22 26 26 25 22 19 16 20 24 19 14 11 5 8 11 9 9 8 7 9 12 13 12 17 17 19 19 23 17 14 10
19 16 17 17 14 13 17 15 17 8 9 9 7 9 10 13 13 17 20 25 27 26 24 24 25 25 15 17 14 13 11 12 7 7 9 9 9 9 11 11 11 13 15 19 16 16 15 12 13
17 14 15 13 14 17 20 12 12 11 7 11 10 6 3 4 15 15 22 26 24 27 26 32 27 12 9 15 14 14 14 13 11 10 7 8 9 10 10 12 12 12 12 13 12 11 13 13 14
18 15 15 14 15 14 18 17 16 13 1 7 6 8 6 2 9 13 23 28 24 27 26 26 17 9 9 9 13 12 12 11 11 11 9 7 9 10 9 9 8 8 7 7 9 10 11 14 11
18 15 11 13 13 13 17 18 16 6 6 2 7 8 4 1 7 13 16 19 26 26 27 20 8 5 3 8 8 10 10 10 13 9 7 7 7 6 8 8 7 5 5 5 7 8 8 7 9
17 17 13 15 12 12 17 9 10 10 5 4 6 3 1 6 7 12 15 20 22 23 25 20 5 8 4 3 4 5 6 7 8 5 3 5 7 9 11 8 5 4 3 4 5 7 7 7 9
18 17 20 19 17 12 12 11 9 5 10 8 6 7 4 8 9 12 15 18 21 21 24 16 6 8 1 2 3 5 7 6 1 1 3 5 7 10 10 7 5 3 4 4 6 5 5 6 5
22 15 11 11 16 16 13 12 8 8 5 13 11 9 7 9 11 11 14 17 17 18 20 15 7 10 1 1 2 5 7 5 2 4 4 8 8 10 10 6 3 3 4 4 4 4 3 4 6
15 16 14 17 15 12 13 8 12 9 12 10 9 9 10 11 11 10 11 13 12 15 16 14 14 15 7 5 7 9 8 6 6 8 8 10 10 8 6 6 4 3 3 3 3 5 4 5 3
20 20 20 13 15 13 12 13 10 10 10 7 10 10 10 11 13 11 10 12 15 16 18 15 16 12 10 10 10 10 9 10 10 9 10 11 10 9 7 5 3 4 3 2 3 4 2 4 3
Wind_Direction
202 214 233 231 261 170 64 68 61 45 74 52 45 34 56 26 27 78 131 130 134 132 143 146 147 143 147 143 142 147 153 155 157 157 157 154 150 145 131 131 136 132 107 129 135 138 135 134 130
205 225 243 275 273 66 60 51 57 56 63 107 58 105 50 58 83 117 117 132 136 134 145 154 155 151 152 154 148 148 149 155 161 164 164 168 170 166 149 139 154 141 127 128 143 137 138 136 133
255 239 264 225 52 58 69 68 70 77 53 35 102 45 42 101 116 124 129 143 132 139 144 156 163 161 160 160 156 151 153 155 162 167 168 170 182 164 169 166 149 144 141 143 137 138 143 141 140
222 211 236 55 68 70 71 71 81 113 93 52 113 96 75 94 100 118 143 148 142 154 148 162 170 168 168 165 164 157 157 156 158 162 160 164 167 158 171 177 166 161 155 156 154 145 150 148 150
249 257 175 80 70 75 79 72 56 76 57 63 76 95 108 96 101 130 145 145 154 124 141 155 170 173 174 172 172 169 166 166 168 179 179 181 176 169 154 175 182 175 167 173 153 159 161 160 160
265 250 95 80 78 87 87 88 81 74 81 112 102 114 86 123 139 144 151 157 157 144 141 155 169 173 184 183 182 182 180 180 184 193 202 194 179 183 182 179 184 183 179 177 169 174 172 167 174
265 302 24 101 101 67 81 50 65 83 85 91 169 91 120 156 142 150 153 160 157 155 134 152 170 177 185 192 192 192 197 197 200 207 215 219 212 226 214 204 202 191 194 184 185 188 182 178 183
281 294 166 55 84 81 83 75 73 58 77 102 278 116 158 138 150 151 154 154 170 164 146 161 170 180 184 194 201 199 202 203 212 215 227 233 237 233 242 231 212 198 202 201 194 191 194 192 191
274 280 36 54 39 122 126 115 80 69 123 100 82 44 129 148 153 156 159 164 176 178 174 157 173 186 188 189 196 200 205 205 212 216 223 227 242 231 234 224 208 202 209 210 210 203 208 206 209
262 293 24 60 44 27 105 318 114 217 124 140 127 113 133 155 163 164 171 171 181 181 181 177 174 180 188 197 186 192 197 207 210 216 207 233 248 204 222 212 227 219 210 218 218 216 213 212 215
279 317 1 37 41 5 327 160 226 252 166 156 164 161 155 166 173 174 181 171 180 181 185 183 184 184 192 199 186 184 204 209 203 201 252 234 240 224 231 222 216 213 226 224 215 218 219 219 233
269 292 297 320 332 306 263 312 175 232 68 99 156 164 166 177 178 181 186 170 176 179 186 184 183 187 200 198 202 199 200 216 206 197 253 236 236 227 234 234 226 194 202 228 211 215 219 221 236
266 277 304 294 308 311 302 258 270 221 213 164 147 166 174 181 179 185 182 179 178 182 187 182 181 184 192 206 210 220 215 209 209 225 232 229 239 235 230 243 230 231 209 230 230 210 221 231 236
305 307 293 281 271 255 279 261 207 214 196 174 165 178 183 182 180 184 185 186 186 184 186 186 188 186 189 197 208 208 219 221 217 238 243 246 242 244 232 237 230 232 226 225 230 250 211 229 230
285 282 280 267 183 302 273 248 223 207 170 188 182 188 190 190 184 185 185 191 189 185 185 185 190 195 194 206 205 209 215 230 233 236 250 258 247 231 230 227 247 221 234 229 225 239 223 228 236
267 274 277 269 156 139 258 40 245 176 171 197 194 192 200 193 191 190 183 192 192 185 186 185 189 195 207 213 220 219 213 228 237 244 248 265 255 228 228 227 229 226 228 230 220 220 224 241 233
250 251 255 263 157 288 236 291 167 179 190 201 198 206 202 201 195 196 189 195 190 192 179 186 194 203 212 224 226 241 251 240 246 248 249 257 258 227 223 220 217 222 231 240 233 228 226 231 249
248 244 235 258 284 176 253 249 261 181 206 217 221 197 206 209 195 198 194 194 185 180 181 184 192 213 222 225 228 246 271 276 269 270 268 242 241 219 233 216 210 213 231 238 252 247 246 256 256
274 280 292 296 307 287 274 289 288 274 273 209 216 208 207 208 206 194 197 190 181 179 175 184 193 192 207 222 228 229 219 289 289 262 255 247 226 214 220 214 207 207 211 233 258 259 258 264 260
271 267 261 267 273 274 284 274 276 295 282 279 214 197 202 210 207 192 189 188 185 179 174 178 181 177 201 218 233 266 223 274 265 234 213 228 212 198 195 194 202 206 214 234 236 242 259 258 257
255 258 266 273 284 278 250 270 272 257 247 233 254 261 199 204 205 192 177 188 186 174 173 165 172 204 210 206 226 248 195 250 251 223 221 208 206 195 199 201 208 219 227 227 233 241 250 252 255
257 251 258 265 264 266 255 262 246 265 239 287 180 171 207 193 213 193 175 187 190 172 165 165 180 211 209 207 199 214 225 233 223 232 214 189 196 197 203 198 202 210 217 221 236 235 240 249 255
258 276 272 269 269 269 256 262 285 272 223 242 119 75 32 315 191 207 175 181 191 162 166 178 195 193 195 208 228 221 230 251 244 236 206 194 196 200 199 197 204 208 214 219 239 245 237 240 254
255 255 255 253 251 251 246 253 260 251 299 274 76 77 358 351 179 190 179 168 174 166 176 195 201 179 173 216 221 231 245 246 251 236 215 195 210 204 210 189 188 189 196 213 229 236 239 244 262
226 228 239 236 231 244 243 226 237 337 349 323 338 26 342 77 169 172 175 156 159 173 185 197 210 252 238 196 225 240 218 222 243 240 229 186 189 193 194 176 163 176 212 236 252 248 246 241 242
209 233 244 246 246 255 209 221 253 250 333 293 236 88 119 135 146 166 152 149 169 183 193 189 240 186 195 134 182 190 189 223 236 218 220 192 193 180 178 170 173 199 230 226 231 245 246 231 240
242 213 241 264 276 279 272 219 207 227 242 243 192 100 105 111 137 151 148 173 182 188 192 199 213 191 74 38 206 194 218 243 131 192 175 179 169 174 192 175 144 187 198 226 242 246 246 252 259
233 237 234 242 260 276 246 246 256 166 218 78 94 107 132 137 138 153 161 167 179 186 192 203 196 180 277 356 183 176 162 164 175 116 144 152 159 177 186 174 191 199 199 208 242 267 252 271 280
207 237 253 262 237 262 249 252 50 77 76 88 95 124 149 144 143 149 152 145 177 176 181 187 181 174 216 172 172 161 153 156 149 130 127 132 145 164 182 173 173 194 222 231 250 266 270 267 270
239 210 223 247 247 272 300 295 93 102 107 91 114 135 145 147 144 149 145 155 163 169 180 182 186 196 191 162 183 166 159 158 149 135 131 137 150 166 168 159 178 192 169 217 240 249 43 305 357